Regional Weather Roundup
Issued by NWS

Home | Current Version | Previous Version | Text Only | Print | Product List | Glossary On
Versions: 1 2 3 4 5 6 7 8 9 10 11 12 13 14 15 16 17 18 19 20 21 22 23 24 25 26 27
000
ASUS42 KKEY 291210
RWRKEY

FLORIDA REGIONAL WEATHER ROUNDUP FOR THE FLORIDA KEYS
NATIONAL WEATHER SERVICE KEY WEST FLORIDA
800 AM EDT FRI JUL 29 2016

...SOUTH FLORIDA AND THE KEYS...

CITY           SKY/WX    TMP DP  RH WIND       PRES   REMARKS
FORT MYERS     SUNNY     80  77  90 E3        30.05R
SW REGIONAL AP SUNNY     80  76  87 CALM      30.06R
NAPLES         SUNNY     80  77  90 E3        30.05R
MIAMI          MOSUNNY   84  78  82 CALM      30.06R HX  95
WEST KENDALL   SUNNY     82  79  90 CALM      30.06R HX  92
HOMESTEAD      SUNNY     81  78  90 CALM      30.06R HX  90
MARATHON       MOSUNNY   84  78  82 CALM      30.04R HX  95
BOCA CHICA NAS MOSUNNY   84  77  79 SE7       30.04R HX  94
KEY WEST INTL  SUNNY     85  78  80 SE7       30.04R HX  96

...INTERNATIONAL WEATHER...

CITY           SKY/WX    TMP DP  RH WIND       PRES   REMARKS
NASSAU BAHAMAS PTSUNNY   84  79  84 NE3       30.07R HX  96
CANCUN MEXICO  PTCLDY    82  77  83 E6        29.98R HX  91
COZUMEL MEXICO PTCLDY    73  73 100 CALM      29.98R

ADJACENT COASTAL WATERS...

STATION/POSITION TIME  SKY/WX   TEMP    WIND        PRES    WAVE
                                AIR SEA DIR/SP/G            HT/PER
                 (UTC)          (F)     (DEG/KT/KT) (MB)    (FT/S)
PULASKI SHOAL LI 1200            84     110/  7/  8 1017.3R
SAND KEY         1150            84     140/  8/  9 1017.6R
LONG KEY         1200            85 86   10/  1/  2 1017.7R
FOWEY ROCKS      1200            85 85  120/  4/  4 1018.5R

$$




USA.gov is the U.S. government's official web portal to all federal, state and local government web resources and services.